Location: P�rn�nmaa
(61.1833°N, 23.0000°E)
Time: 19:14:08
(UTC+00:00)

NOSS 2-3 (C) - Pass Details

Date: 08 December 2019
Orbit: 591 x 1621 km, 63.4° (Epoch: 07 January)

Event Time Altitude Azimuth Distance (km) Brightness Sun altitude
Rises 16:27:19 0° 283° (WNW) 3,198 8.4 -20.7°
Reaches altitude 10° 16:29:28 10° 285° (WNW) 2,380 7.5 -20.9°
Maximum altitude 16:34:59 77° 12° (NNE) 983 4.4 -21.6°
Enters shadow 16:37:30 41° 90° (E) 1,463 4.9 -21.9°
